This demonstration page uses our WeatherBlox Daily Observations layout. Learn more.

Left ArrowRight Arrow

Hourly Observations for December 25, 2015

Temp ( °F °C ) Dew Point ( °F °C ) Humidity (%) Winds ( mph kmh ) Pressure ( in mb ) Visibility ( mi km ) Precip ( " mm )
12:53 am 00:53 Mostly Cloudy 35 1.7 31 -0.6 85 85 Calm 30.00 1016 9 14 0.00 0.00
1:53 am 01:53 Cloudy 36 2.2 31 -0.6 82 82 N 5 7 30.02 1017 9 14 0.00 0.00
2:53 am 02:53 Cloudy 36 2.2 32 0 86 86 Calm 30.04 1017 9 14 0.00 0.00
3:53 am 03:53 Mostly Cloudy 35 1.7 31 -0.6 85 85 Calm 30.07 1018 8 13 0.00 0.00
4:53 am 04:53 Mostly Cloudy 35 1.7 30 -1.1 82 82 Calm 30.08 1019 10 16 0.00 0.00
5:53 am 05:53 Cloudy 36 2.2 31 -0.6 82 82 Calm 30.12 1020 9 14 0.00 0.00
6:53 am 06:53 Partly Cloudy 34 1.1 30 -1.1 85 85 Calm 30.14 1021 10 16 0.00 0.00
7:53 am 07:53 Sunny 33 0.6 29 -1.7 85 85 Calm 30.18 1022 9 14 0.00 0.00
8:53 am 08:53 Mostly Cloudy 38 3.3 33 0.6 83 83 Calm 30.22 1023 10 16 0.00 0.00
9:53 am 09:53 Mostly Sunny 41 5 36 2.2 82 82 Calm 30.24 1024 10 16 0.00 0.00
10:53 am 10:53 Sunny 44 6.7 35 1.7 71 71 Calm 30.26 1025 10 16 0.00 0.00
11:53 am 11:53 Sunny 47 8.3 35 1.7 63 63 Calm 30.24 1024 10 16 0.00 0.00
12:53 pm 12:53 Sunny 48 8.9 35 1.7 61 61 Calm 30.24 1024 10 16 0.00 0.00
1:53 pm 13:53 Sunny 50 10 33 0.6 52 52 Calm 30.24 1024 10 16 0.00 0.00
2:53 pm 14:53 Sunny 51 10.6 31 -0.6 46 46 NNW 6 9 30.24 1024 10 16 0.00 0.00
3:53 pm 15:53 Mostly Sunny 52 11.1 31 -0.6 45 45 NW 6 9 30.26 1025 10 16 0.00 0.00
4:53 pm 16:53 Clear 48 8.9 31 -0.6 52 52 NW 5 7 30.29 1026 10 16 0.00 0.00
5:53 pm 17:53 Clear 46 7.8 31 -0.6 56 56 NW 5 7 30.31 1027 10 16 0.00 0.00
6:53 pm 18:53 Clear 43 6.1 31 -0.6 63 63 NNE 3 6 30.34 1027 10 16 0.00 0.00
7:53 pm 19:53 Clear 40 4.4 31 -0.6 70 70 NW 6 9 30.36 1028 10 16 0.00 0.00
8:53 pm 20:53 Clear 42 5.6 31 -0.6 65 65 VRB 3 6 30.39 1029 10 16 0.00 0.00
9:53 pm 21:53 Clear 40 4.4 30 -1.1 68 68 NNW 5 7 30.41 1030 10 16 0.00 0.00
10:53 pm 22:53 Clear 41 5 29 -1.7 62 62 NNW 8 13 30.43 1031 10 16 0.00 0.00
11:53 pm 23:53 Clear 42 5.6 28 -2.2 58 58 NNW 8 13 30.45 1031 10 16 0.00 0.00

Powered by AerisWeather